sat.trackr.live / text

‹ back to catalog

STARLINK-30831

NORAD 58153 · 2023-166D

PAYLOAD ACTIVE UNKNOWN

§ Identity

Operator
Country
US
Launch date
2023-10-29
Launch site
AFWTR
Launch vehicle
Mass (kg)
RCS (m²)

Purposes: comms

External: N2YO · Heavens-Above · Gunter

§ Orbital elements

Epoch: 2026-05-25T05:04:50.117088Z

Period
94.11 min
Inclination
53.1612°
Eccentricity
0.0001173
Mean motion
15.30187434 rev/d
Perigee alt
474.4 km
Apogee alt
476.1 km
Semi-major
6,853.4 km
B*
1.2562e-5
RAAN
224.2846°
Arg perigee
89.5560°
Mean anomaly
270.5576°
Rev number
14,489

§ Raw data

STARLINK-308311 58153U 23166D   26145.21169117  .00000013  00000+0  12562-4 0  99992 58153  53.1612 224.2846 0001173  89.5560 270.5576 15.30187434144899

JSON: /api/v1/satellites/58153 · /tle

For live sub-satellite position, see the globe view (requires WebGL).

§ Visibility from observer

Set your observer location to see the next 7 days of passes ≥ 10°. The values pass through the URL so the page stays shareable.

No JS? Fill the form by hand. The geolocation button needs JavaScript.